Regional Weather Roundup
Issued by NWS

Home | Current Version | Previous Version | Graphics & Text | Print | Product List | Glossary On
Versions: 1 2 3 4 5 6 7 8 9 10 11 12 13 14 15 16 17 18 19 20 21 22 23 24 25 26 27 28 29 30 31 32 33 34 35 36 37 38 39 40 41 42 43 44 45 46 47 48 49 50
000
ASUS43 KMPX 201601
RWRMN
WEATHER ROUNDUP FOR MINNESOTA
NATIONAL WEATHER SERVICE TWIN CITIES/CHANHASSEN MN
1000 AM CST SAT JAN 20 2018


NOTE: "FAIR" INDICATES FEW OR NO CLOUDS BELOW 12,000 FEET WITH NO
SIGNIFICANT WEATHER AND/OR OBSTRUCTIONS TO VISIBILITY. N/A MEANS
CURRENT SKY AND/OR WEATHER CONDITIONS ARE NOT AVAILABLE.

MNZ060>063-068>070-201700-
   Twin Cities Metro

CITY           SKY/WX    TMP DP  RH WIND       PRES   REMARKS
TWIN CITIES    PTSUNNY   32  30  92 SW3       29.89R
ST PAUL        FAIR      28  28 100 CALM      29.90R
CRYSTAL        PTSUNNY   33  28  81 S5        29.87R WCI  29
BLAINE         PTSUNNY   34  34 100 VRB3      29.86R
LAKEVILLE        N/A     30  30 100 CALM      29.87S
EDEN PRAIRIE   PTSUNNY   32  29  88 CALM      29.87R
SOUTH ST PAUL  FAIR      31  30  98 CALM      29.89R
LAKE ELMO      FAIR      30  30 100 CALM      29.89R
$$
MNZ001>005-007-008-013>017-022>024-027-028-201700-
   Northwest Minnesota

CITY           SKY/WX    TMP DP  RH WIND       PRES   REMARKS
BEMIDJI        FAIR      26  26  97 SW5       29.79R WCI  21
HALLOCK        FAIR      19  18  93 S6        29.80R WCI  11
ROSEAU         FAIR      23  19  86 S6        29.79R WCI  16
WARROAD        FAIR      27  21  80 CALM      29.78R
CROOKSTON      FAIR      25  23  93 SW6       29.82R WCI  18
FOSSTON        FAIR      25  23  93 S9        29.81R WCI  15
DETROIT LAKES  FAIR      27  27 100 S3        29.83S
MOORHEAD       FAIR      27  25  93 SW6       29.84S WCI  20
PARK RAPIDS    CLOUDY    25  23  92 S5        29.80R WCI  19
MAHNOMEN       FAIR      24  23  96 S10       29.82R WCI  13
$$
MNZ006-009>011-018-025>026-201700-
   North Central Minnesota

CITY           SKY/WX    TMP DP  RH WIND       PRES   REMARKS
BAUDETTE       FAIR      27  24  89 SW3       29.77R
FLAG ISLAND    CLOUDY    30  28  93 NW5       29.76R WCI  25
INTL FALLS     FAIR      29  24  82 SW6       29.77R WCI  23
WASKISH        FAIR      27  25  93 CALM      29.78R
BIG FORK       FAIR      28  27  93 CALM      29.79R
LONGVILLE      PTSUNNY   28  27  93 CALM      29.81R
GRAND RAPIDS   CLOUDY    29  27  92 S3        29.82R
CRANE LAKE     FAIR      28  27  93 CALM      29.80R
ORR            FAIR      28  25  86 SW3       29.77R
COOK           PTSUNNY   28  27  93 SW3       29.80R
WALKER         PTSUNNY   28  26  90 CALM      29.80R FOG
$$
MNZ012-019>021-037-201700-
   Northeast Minnesota

CITY           SKY/WX    TMP DP  RH WIND       PRES   REMARKS
DULUTH         CLOUDY    31  27  85 W7        29.81R WCI  24
ELY            FAIR      30  28  93 W6        29.78R WCI  24
HIBBING        CLOUDY    27  27 100 CALM      29.79R
EVELETH        FAIR      26  23  91 W3        29.81R
DULUTH HARBOR  PTSUNNY   30  28  93 SW6       29.85R WCI  24
TWO HARBORS    PTSUNNY   36  30  80 W6        29.80R
SILVER BAY       N/A     34  30  86 SW3       29.79R
GRAND MARAIS     N/A     37  33  85 W9        29.79R
G MARAIS ARPRT CLOUDY    32  27  80 CALM      29.75R
$$
MNZ029>031-032-039>041-046>048-054>057-064-201700-
   West Central Minnesota

CITY           SKY/WX    TMP DP  RH WIND       PRES   REMARKS
FERGUS FALLS   FAIR      27  27 100 CALM      29.86S
WHEATON        CLOUDY    36  28  75 W5        29.89S
MORRIS         CLOUDY    34  30  86 NW5       29.86R WCI  30
ALEXANDRIA     CLOUDY    32  29  88 W6        29.85R WCI  26
ELBOW LAKE     PTSUNNY   30  28  92 SW7       29.87R FOG     WCI  24
WADENA         FAIR      27  27 100 CALM      29.84R
GLENWOOD       FAIR      32  28  86 W5        29.87R WCI  27
APPLETON       CLOUDY    32  28  86 CALM      29.87R
BENSON         CLOUDY    32  28  86 CALM      29.89R
ORTONVILLE     CLOUDY    36  28  75 NW3       29.87R
MADISON        CLOUDY    37  32  81 NW3       29.87R
WILLMAR        FAIR      30  28  93 W3        29.90R
$$
MNZ033>034-036-042>043-049>051-058-059-201700-
   Central Minnesota

CITY           SKY/WX    TMP DP  RH WIND       PRES   REMARKS
ST CLOUD       CLOUDY    29  29 100 CALM      29.85R
SAUK CENTRE      N/A     31  28  90 W7        29.87R WCI  24
PAYNESVILLE    CLOUDY    32  31  99 W3        29.87R
AITKIN         FAIR      28  27  93 CALM      29.82R
PINE RIVER     FAIR      27  25  93 CALM      29.86R
BRAINERD       CLOUDY    29  27  92 W3        29.84R
STAPLES        PTSUNNY   25  25 100 CALM      29.84R
LONG PRAIRIE   FAIR      30  28  93 SW3       29.85R
LITTLE FALLS   CLOUDY    30  28  93 CALM      29.86R
LITCHFIELD     PTSUNNY   36  34  93 CALM      29.87R
BUFFALO        CLOUDY    31  29  92 CALM      29.88R
MAPLE LAKE     PTSUNNY   33  32  94 MISG      29.87R
HUTCHINSON     PTSUNNY   35  32  90 CALM      29.88R
$$
MNZ037-044-045-052-053-201700-
   East Central Minnesota

CITY           SKY/WX    TMP DP  RH WIND       PRES   REMARKS
PRINCETON      FAIR      30  30 100 CALM      29.85S
MORA           FAIR      28  27  93 CALM      29.85S
CAMBRIDGE        N/A     30  30 100 CALM      29.85S
RUSH CITY      CLOUDY    29  28  96 CALM      29.86R
MOOSE LAKE     CLOUDY    28  27  93 CALM      29.82R
HINCKLEY       FAIR      28  28 100 CALM      29.84S
CLOQUET        CLOUDY    32  27  80 W5        29.81R WCI  27
MCGREGOR       CLOUDY    30  28  93 CALM      29.83R
$$
MNZ071>073-080-081-089-090-097-098-201700-
   Southwest Minnesota

CITY           SKY/WX    TMP DP  RH WIND       PRES   REMARKS
MONTEVIDEO     CLOUDY    34  28  80 CALM      29.87S
GRANITE FALLS  CLOUDY    35  31  85 CALM      29.89R
CANBY          CLOUDY    38  31  76 SW3       29.87S
MARSHALL       CLOUDY    34  29  82 CALM      29.89
REDWOOD FALLS  CLOUDY    32  29  88 SW7       29.88R WCI  26
OLIVIA         MOSUNNY   34  32  93 W3        29.88R
PIPESTONE      CLOUDY    28  25  86 CALM      29.87R
WINDOM         CLOUDY    28  16  59 CALM      29.88R
WORTHINGTON    CLOUDY    32  30  92 CALM      29.88R
JACKSON        CLOUDY    32  30  93 CALM      29.88R
TRACY          CLOUDY    34  30  83 SW3       29.87R
SLAYTON        CLOUDY    30  28  92 CALM      29.88R
$$
MNZ065>067-074>077-082>085-091>093-201700-
   South Central Minnesota

CITY           SKY/WX    TMP DP  RH WIND       PRES   REMARKS
MANKATO        FAIR      31  30  96 S5        29.89S WCI  26
NEW ULM        CLOUDY    30  28  93 CALM      29.87S
ST JAMES       CLOUDY    30  28  93 CALM      29.89S
FAIRMONT       CLOUDY    32  31  96 CALM      29.88S
FARIBAULT      FAIR      27  25  93 CALM      29.89S
OWATONNA       FAIR      28  27  93 CALM      29.89R FOG
WASECA         FAIR      27  25  93 CALM      29.91R FOG
ALBERT LEA     FAIR      30  28  93 CALM      29.88R
$$
MNZ078>079-086>088-094>096-201700-
   Southeast Minnesota

CITY           SKY/WX    TMP DP  RH WIND       PRES   REMARKS
ROCHESTER      FAIR      29  28  96 S5        29.88R WCI  24
RED WING       FAIR      28  27  93 CALM      29.89R
STANTON        FAIR      28  26  92 S5        29.87R WCI  22
DODGE CENTER   FAIR      28  27  93 CALM      29.88R
WINONA         FAIR      28  27  93 CALM      29.89S
PRESTON        FAIR      31  29  91 CALM      29.89S
$$
ABBREVIATIONS USED IN REMARKS
   TC - TEMPERATURES IN CELSIUS
  WCI - WIND CHILL INDEX
   HX - HEAT INDEX
  VSB - VISIBILITY
$$




USA.gov is the U.S. government's official web portal to all federal, state and local government web resources and services.